Volver al catálogo

FENGYUN 1C DEB

ActivoPO
NORAD 37694·DEBRIS·🇨🇳 China

Lanzado May 10, 1999 desde Taiyuan Satellite Launch Center

Loading…

Próximos Pases (próximas 24 horas)

TLE

ActualizadoSource: Space-Track

Época: Sep 13, 2026, 08:34 UTC

1 37694U 99025ELK 26256.35733947  .00001985  00000-0  88299-3 0  9998
2 37694  98.1836 307.7623 0144075  13.5577  46.4860 14.18510330555956

Sigue FENGYUN 1C DEB en tiempo real con AllMySat

Download on the App Store